{"data":{"norad_id":56417,"intl_designator":"2023-061AV","name":"STARLINK-6261","alt_names":[],"object_type":"PAYLOAD","status":"ACTIVE","operator":null,"country":"US","launch_date":"2023-05-04","launch_site_code":"AFETR","launch_vehicle":null,"mission":null,"orbit_class":"UNKNOWN","rcs_meters":null,"size_class":null,"mass_kg":null,"dimensions":null,"purposes":["comms"],"wikipedia_slug":null,"has_3d_model":false,"image_url":null,"decayed_at":null,"tle_current":{"epoch":"2026-09-20T11:03:43.271136Z","epoch_age_seconds":115593,"freshness":"FRESH","line1":"1 56417U 23061AV  26263.46091749 -.00000011  00000+0  91357-5 0  9996","line2":"2 56417  43.0038 166.9572 0001577 268.2246  91.8425 15.27577133186666","mean_motion":15.27577133,"eccentricity":0.0001577,"inclination_deg":43.0038,"raan_deg":166.9572,"arg_perigee_deg":268.2246,"mean_anomaly_deg":91.8425,"bstar":9.1357e-6,"rev_number":18666,"period_min":94.266925636154,"perigee_km":481.9756704813,"apogee_km":484.13969128365,"semimajor_km":6861.1946808825,"source":"CELESTRAK","updated_at":"2026-09-21T09:00:33.438057Z"}}}